www.pogodaiklimat.ru
ПОГОДА в Гуре
Время
(UTC), дата
18 20.09
21 20.09
00 21.09
03 21.09
06 21.09
09 21.09
12 21.09
18 21.09
21 21.09
00 22.09
06 22.09
09 22.09
12 22.09
15 22.09
18 22.09
21 22.09
00 23.09
03 23.09
06 23.09
09 23.09
12 23.09
15 23.09
18 23.09
21 23.09
00 24.09
03 24.09
06 24.09
09 24.09
12 24.09
15 24.09
18 24.09
21 24.09
00 25.09
03 25.09
06 25.09
09 25.09
12 25.09
15 25.09
18 25.09
21 25.09
00 26.09
03 26.09
06 26.09
09 26.09
12 26.09
15 26.09
18 26.09
21 26.09
00 27.09
03 27.09
06 27.09
09 27.09
12 27.09
15 27.09
Ветер
(напр.,м/с)
Видим. Явления Облачность Т
(С)
Тd
(С)
f
(%)
Тe
(С)
Тes
(С)
Комфортность P
(гПа)
Po
(гПа)
Тmin
(С)
Tmax
(С)
R
(мм)
R24
(мм)
S
(см)
штиль 0 10 км 9/0
[Ac As Ci sp]
+30.5 +23.4 66 +41 +41 опасность
перегрева
1008.2 959.5 +35.5
штиль 0 10 км 9/0
[Cs]
+28.0 +16.2 49 +31 +31 душно 1009.7 961.1
штиль 0 10 км 9/0
[Cs]
+24.5 +19.2 72 +29 +29 душно 1009.9 961.3
ЮВ 6 10 км зарница 9/3 900 м
[Cb cap Ac As Ci sp]
+25.6 +18.6 65 +30 +30 душно 1009.8 961.3
ЮВ 2 10 км {гроза} 10/0
[Ac As]
+22.0 +18.9 83 +27 +27 душно 1011.8 962.6 +22.0
ЮВ 4 10 км 10/3 900 м
[Cu med, cong Ac cast]
+23.5 +20.5 83 +29 +31 душно 1014.6 965.1
З 8 10 км 9/0
[Ac As Ci sp]
+27.0 +20.3 67 +33 +35 очень
душно
1012.8 963.4
штиль 0 10 км 9/0
[Ac trans Ci sp]
+27.0 +22.0 74 +35 +35 очень
душно
1011.0 961.5 +32.5
штиль 0 10 км 9/0
[Cs]
+24.5 +21.6 84 +31 +31 очень
душно
1012.3 962.7
штиль 0 11 км 9/0 1000 м
[Cs]
+23.5 +22.1 92 +30 +30 очень
душно
1011.0 962.1
З 4 10 км 10/0
[Ac As]
+23.0 +21.6 92 +31 +31 очень
душно
1011.7 962.0 +22.8
З 4 10 км 9/0
[Ac As Ci sp]
+30.0 +21.3 60 +38 +41 очень
душно
1012.6 963.5
штиль 0 10 км 9/0
[Ac trans Cs]
+36.8 +20.5 39 +43 +64 опасность
перегрева
1011.2 962.6
В 2 10 км 9/1 1200 м
[Cu hum Cs]
+36.0 +17.1 33 +39 +44 очень
душно
1009.0 960.4
штиль 0 10 км 9/0
[Cs]
+31.5 +20.4 52 +38 +38 очень
душно
1009.1 960.2 +37.5
штиль 0 10 км 6/0
[Ci sp]
+28.0 +21.0 66 +35 +35 очень
душно
1010.1 961.3
штиль 0 10 км 6/0
[Ci sp]
+27.0 +20.7 68 +34 +34 очень
душно
1009.5 961.2
штиль 0 10 км 6/0
[Ci sp]
+25.3 +21.2 78 +32 +32 очень
душно
1009.3 961.9
З 2 10 км 9/0
[Cs]
+24.5 +21.6 84 +31 +32 очень
душно
1010.7 961.8 +24.0
З 2 10 км 9/0
[Cs]
+34.0 +19.5 43 +40 +51 опасность
солнечного
удара
1010.7 962.3
З 2 10 км 9/0
[Cs]
+39.5 +13.4 21 +39 +56 опасность
солнечного
удара
1009.4 961.4
З 2 10 км 9/1 1200 м
[Cu med, cong Ac cuf Cs]
+38.0 +13.9 24 +38 +42 очень
жарко
1007.1 959.0
штиль 0 10 км 9/0
[Cs]
+32.4 +20.0 48 +39 +39 очень
душно
1007.5 958.9 +40.0
штиль 0 10 км 9/0
[Cs]
+29.0 +16.5 47 +32 +32 душно 1009.9 961.0
штиль 0 10 км 9/0
[Cs]
+27.2 +18.0 57 +32 +32 очень
душно
1008.0 960.1
штиль 0 10 км 9/0
[Cs]
+26.0 +18.4 63 +31 +31 очень
душно
1008.5 960.3
штиль 0 10 км 9/0
[Ac und Ci sp]
+26.0 +21.5 76 +33 +33 очень
душно
1009.9 961.3 +25.0
З 4 10 км 9/0
[Cs]
+33.0 +19.8 46 +39 +47 очень
душно
1011.2 962.7
В 4 2500 м пыль 9/0
[Cs]
+38.5 +14.3 24 +39 +50 душно 1009.0 960.9
В 4 4000 м пыль 9/0
[Cs]
+38.0 +9.6 18 +36 +40 очень
жарко
1007.5 959.4
штиль 0 5000 м пыль 9/0
[Cs]
+33.0 +13.8 31 +34 +34 очень
жарко
1008.5 960.0 +39.5
штиль 0 6000 м пыль 9/0
[Cs]
+28.4 +16.9 50 +32 +32 душно 1009.5 961.0
штиль 0 10 км 9/0
[Cs]
+27.0 +15.0 48 +30 +30 душно 1008.8 960.7
штиль 0 10 км 9/0
[Cs]
+25.0 +18.1 66 +29 +29 душно 1008.7 960.5
штиль 0 10 км 9/0
[Ac trans Ci sp]
+26.0 +19.2 66 +31 +32 очень
душно
1010.8 962.2 +24.5
З 4 10 км 9/0
[Ac trans Ci sp]
+34.2 +25.0 59 +48 +54 опасность
перегрева
1011.4 963.0
штиль 0 10 км 9/0
[Ac lent Ci sp]
+37.0 +21.3 40 +44 +59 опасность
перегрева
1010.0 961.7
С 6 10 км гроза без осадков 10/6 900 м
[Cb cap Ac As Ci ing]
+29.5 +18.1 50 +34 +35 очень
душно
1007.1 958.2
штиль 0 10 км гроза без осадков 10/4 900 м
[Cb cap Ac As]
+25.5 +21.1 77 +32 +32 очень
душно
1010.3 961.1 +38.3 3
З 4 10 км в посл. час гроза 10/1 900 м
[Cb cap Ac As]
+24.3 +21.7 85 +31 +31 очень
душно
1011.9 963.1
З 8 10 км {гроза} 10/0
[Ac As]
+23.2 +20.7 86 +31 +31 очень
душно
1009.0 960.5
З 2 10 км 9/0
[Cs]
+22.2 +20.4 90 +29 +29 очень
душно
1008.4 959.3
З 2 10 км 9/0
[Ac cast Cs]
+22.5 +22.0 97 +30 +30 очень
душно
1009.9 960.4 +11.6 3
З 4 10 км 9/0
[Cs]
+30.0 +21.9 62 +39 +46 очень
душно
1009.3 960.4
штиль 0 10 км 9/0 <50 м
[Cs]
+36.4 +16.6 31 +39 +60 опасность
солнечного
удара
1007.9 959.4
штиль 0 10 км 9/0
[Cs]
+36.8 +19.5 36 +42 +49 опасность
перегрева
1005.5 957.1
штиль 0 10 км 9/0
[Cs]
+30.5 +21.9 60 +39 +39 очень
душно
1006.2 957.3 +37.5
З 4 10 км 9/0
[Cs]
+29.0 +16.5 47 +32 +32 душно 1007.9 959.4
штиль 0 10 км 9/0
[Cs]
+27.0 +17.8 57 +31 +31 душно 1006.5 958.4
З 2 10 км 9/0
[Cs]
+26.0 +21.5 76 +33 +33 очень
душно
1005.5 957.4
З 4 10 км 9/0
[Ac trans Cs]
+25.0 +22.1 84 +32 +33 очень
душно
1008.1 959.3 +25.0
З 4 10 км 9/0
[Ac trans Cs]
+33.0 +22.3 53 +42 +49 опасность
перегрева
1008.6 960.3
З 4 10 км 9/0
[Cs]
+39.0 +18.3 30 +43 +53 опасность
перегрева
1006.5 958.5
СВ 4 10 км 9/3 900 м
[Cu med, cong Cs]
+39.2 +14.5 23 +40 +42 очень
душно
1003.6 955.7
Местоположение метеостанции Гуре (Нигер): широта 13.98 долгота 10.30 высота над уровнем моря 460 м.
В архиве по умолчанию представлена погода в Гуре за последнюю неделю. Архивные данные за месяц целиком и за предыдущие месяцы, начиная с января 2011 года, Вы можете получить, выбрав интересующий диапазон дат из раскрывающегося списка и нажав кнопку "Найти!".
*Определитесь, кто Вы:
Внимание! Время в таблицах - всемирное. Для получения местного времени необходимо прибавить поправку, которая равна 1 ч.
Смотрите также архив погоды в соседних городах и на ближайших метеорологических станциях:
Партнеры нашего сайта:      
Пояснения к столбцам:
  • Ветер - указаны скорость ветра в м/с - средняя за 10 мин, порывы в срок и между сроками (в фигурных скобках) и направление, откуда дует ветер: С - северный,
  • СВ - северо-восточный, В - восточный, ЮВ - юго-восточный, Ю - южный, ЮЗ - юго-западный, З - западный, СЗ - северо-западный.
  • Видимость - горизонтальная дальность видимости в метрах или километрах. При видимости от 1 до 10 км при отсутствии осадков обычно наблюдается дымка, при ухудшении видимости до 1 км и менее - туман. В сухую погоду видимость может ухудшаться дымом, пылью или мглою.
  • Явления - указаны атмосферные явления, наблюдавшиеся в срок или в последний час перед сроком; фигурными скобками обозначены явления, наблюдавшиеся между сроками (за 1-3 часа до срока); квадратными скобками обозначены град или гололедные отложения с указанием их диаметра в мм.
  • Облачность - указаны через наклонную черту общая и нижняя облачность в баллах и высота нижней границы облаков в метрах; квадратными скобками обозначены формы облаков: Ci - перистые, Cs - перисто-слоистые, Cc - перисто-кучевые, Ac - высококучевые, As - высокослоистые, Sc - слоисто-кучевые, Ns - слоисто-дождевые, Cu - кучевые, Cb - кучево-дождевые. Подробнее классификацию облаков см. в Атласе облаков (PDF).
  • T - Температура воздуха - температура, измеренная на высоте 2 м над землей.
  • Td - Температура точки росы - температура, при понижении до которой содержащийся в воздухе водяной пар достигнет насыщения.
  • f - Относительная влажность воздуха - влажноcть воздуха, измеренная на высоте 2 м над землей.
  • Te - Эффективная температура - температура, которую ощущает одетый по сезону человек в тени. Характеристика душности погоды. При расчете учитывается влияние влажности воздуха и скорости ветра на теплоощущения человека.
  • Tes - Эффективная температура на солнце - температура, которую ощущает человек, с поправкой на солнечный нагрев. Характеристика знойности погоды. Зависит от высоты солнца над горизонтом, облачности и скорости ветра. Ночью, в пасмурную погоду, а также при ветре 12 м/с и более поправка равна нулю.
  • P - Атмосферное давление - приведенное к уровню моря атмосферное давление.
  • Po - Атмосферное давление - измеренное на уровне метеостанции атмосферное давление.
  • Tmin - Минимальная температура - минимум температуры воздуха на высоте 2 м над землей.
  • Tmax - Максимальная температура - максимум температуры воздуха на высоте 2 м над землей.
  • R - Количество осадков - Количество выпавших осадков за период времени, мм. При наведении курсора мыши на число - период времени, за который выпало указанное количество осадков.
  • R24 - Количество осадков - Количество выпавших осадков за 24 часа, мм.
  • S - Снежный покров - Высота снежного покрова, см. При наведении курсора мыши на число - состояние снежного покрова и степень покрытия местности в баллах.